{"data":{"norad_id":68123,"epoch":"2026-05-24T21:01:01.618752Z","epoch_age_seconds":81866,"freshness":"FRESH","line1":"1 68123U 26044Y   26144.87571318  .00024677  00000+0  76400-3 0  9998","line2":"2 68123  97.2839 105.5846 0001788  95.9474 264.1972 15.33453270 13267","mean_motion":15.3345327,"eccentricity":0.0001788,"inclination_deg":97.2839,"raan_deg":105.5846,"arg_perigee_deg":95.9474,"mean_anomaly_deg":264.1972,"bstar":0.000764,"rev_number":1326,"period_min":93.905698215375,"perigee_km":464.29492327144,"apogee_km":466.74221450287,"semimajor_km":6843.6555688872,"source":"CELESTRAK","updated_at":"2026-05-25T13:38:21.845604Z"}}